SCP
0 0 0 0 0 0 0 0 0 0 0 0 0 0 0 0 0 0 0 0 0 0 0 0 0 0 0 0 0 0 0 0 0 0 0 0 0 0 0 0 0 0 0
0 0 0 0 0 0 0 0 0 0 0 0 0 0 0 0 0 0 0 0 0 0 0 0 0 0 0 0 0 0 0 0 0 0 0 0 0 0 0 0 0 0 0
0 0 0 0 0 0 0 0 0 0 0 0 0 0 0 0 0 0 0 0 0 0 0 0 0 0 0 0 0 0 0 0 0 0 0 0 0 0 0 0 0 0 0
0 0 0 0 0 0 0 0 0 0 0 0 0 0 0 0 0 0 0 0 0 0 0 0 0 0 0 0 0 0 0 0 0 0 0 0 0 0 0 0 0 0 0
0 0 0 0 0 0 0 0 0 0 0 0 0 0 0 0 0 0 0 0 0 0 0 0 0 0 0 0 0 0 0 0 0 0 0 0 0 0 0 0 0 0 0
0 0 0 0 0 0 0 0 0 0 0 0 0 0 0 0 0 0 0 0 0 0 0 0 0 0 0 0 0 0 0 0 0 0 0 0 0 0 0 0 0 0 0
0 0 0 0 0 0 0 0 0 0 0 0 0 0 0 0 0 0 0 0 0 0 0 0 0 0 0 0 0 0 0 0 0 0 0 0 0 0 0 0 0 0 0
0 0 0 0 0 0 0 0 0 0 0 0 0 0 0 0 0 0 0 0 0 0 0 0 0 0 0 0 0 0 0 0 0 0 0 0 0 0 0 0 0 0 0
0 0 0 0 0 0 0 0 0 0 0 0 0 0 0 0 0 0 0 0 0 0 0 0 0 0 0 0 0 0 0 0 0 0 0 0 0 0 0 0 0 0 0
0 0 0 0 0 0 0 0 0 0 0 0 0 0 0 0 0 0 0 0 0 0 0 0 0 0 0 0 0 0 0 0 0 0 0 0 0 0 0 0 0 0 0
0 0 0 0 0 0 0 0 0 0 0 0 0 0 0 0 0 0 0 0 0 0 0 0 0 0 0 0 0 0 0 0 0 0 0 0 0 0 0 0 0 0 0
0 0 0 0 0 0 0 0 0 0 0 0 0 0 0 0 0 0 0 0 0 0 0 0 0 0 0 0 0 0 0 0 0 0 0 0 0 0 0 0 0 0 0
0 0 0 0 0 0 0 0 0 0 0 0 0 0 0 0 0 0 0 0 0 0 0 0 0 0 0 0 0 0 0 0 0 0 0 0 0 0 0 0 0 0 0
0 0 0 0 0 0 0 0 0 0 0 0 0 0 0 0 0 0 0 0 0 0 0 0 0 0 0 0 0 0 0 0 0 0 0 0 0 0 0 0 0 0 0
0 0 0 0 0 0 0 0 0 0 0 0 0 0 0 0 0 0 0 0 0 0 0 0 0 0 0 0 0 0 0 0 0 0 0 0 0 0 0 0 0 0 0
0 0 0 0 0 0 0 0 0 0 0 0 0 0 0 0 0 0 0 0 0 0 0 0 0 0 0 0 0 0 0 0 0 0 0 0 0 0 0 0 0 0 0
0 0 0 0 0 0 0 0 0 0 0 0 0 0 0 0 0 0 0 0 0 0 0 0 0 0 0 0 0 0 0 0 0 0 0 0 0 0 0 0 0 0 0
0 0 0 0 0 0 0 0 0 0 0 0 0 0 0 0 0 0 0 0 0 0 0 0 0 0 0 0 0 0 0 0 0 0 0 0 0 0 0 0 0 0 0
0 0 0 0 0 0 0 0 0 0 0 0 0 0 0 0 0 0 0 0 0 0 0 0 0 0 0 0 0 0 0 0 0 0 0 0 0 0 0 0 0 0 0
0 0 0 0 0 0 0 0 0 0 0 0 0 0 0 0 0 0 0 0 0 0 0 0 0 0 0 0 0 0 0 0 0 0 0 0 0 0 0 0 0 0 0
0 0 0 0 0 0 0 0 0 0 0 0 0 0 0 0 0 0 0 0 0 0 0 0 0 0 0 0 0 0 0 0 0 0 0 0 0 0 0 0 0 0 0
0 0 0 0 0 0 0 0 0 0 0 0 0 0 0 0 0 0 0 0 0 0 0 0 0 0 0 0 0 0 0 0 0 0 0 0 0 0 0 0 0 0 0
0 0 0 0 0 0 0 0 0 0 0 0 0 0 0 0 0 0 0 0 0 0 0 0 0 0 0 0 0 0 0 0 0 0 0 0 0 0 0 0 0 0 0
0 0 0 0 0 0 0 0 0 0 0 0 0 0 0 0 0 0 0 0 0 0 0 0 0 0 0 0 0 0 0 0 0 0 0 0 0 0 0 0 0 0 0
0 0 0 0 0 0 0 0 0 0 0 0 0 0 0 0 0 0 0 0 0 0 0 0 0 0 0 0 0 0 0 0 0 0 0 0 0 0 0 0 0 0 0
0 0 0 0 0 0 0 0 0 0 0 0 0 0 0 0 0 0 0 0 0 0 0 0 0 0 0 0 0 0 0 0 0 0 0 0 0 0 0 0 0 0 0
Wind_Speed
4 4 4 4 5 4 5 5 5 5 6 6 6 6 5 5 5 5 4 10 10 10 11 10 9 9 9 8 8 8 8 8 8 8 8 8 8 8 7 7 7 6 6
4 4 4 4 5 5 5 6 6 6 6 5 6 7 6 6 6 6 5 7 10 10 10 11 10 10 10 9 9 8 8 8 8 8 7 7 7 7 7 7 6 5 5
4 4 3 4 4 5 5 4 5 5 5 5 5 6 5 7 7 7 6 4 5 8 10 11 11 11 11 10 10 9 9 8 8 8 8 7 7 6 6 6 5 5 4
4 3 3 4 4 4 4 4 4 4 4 3 3 3 4 5 7 7 6 5 4 5 7 10 11 11 11 11 11 10 10 9 8 8 8 7 6 6 5 5 5 4 4
4 3 3 3 4 3 4 5 4 3 3 2 3 3 3 4 6 7 7 7 6 5 4 8 10 10 11 11 12 11 11 10 9 9 8 8 7 6 5 5 4 4 3
4 4 3 4 3 3 3 3 3 3 2 2 2 2 2 3 4 5 6 6 5 6 6 5 5 7 10 11 12 12 12 11 10 10 9 8 8 7 6 5 5 4 3
4 3 3 3 3 4 4 4 3 4 3 2 2 0 1 0 2 3 4 4 5 6 6 5 4 4 4 10 11 12 13 12 12 11 10 9 8 8 7 7 6 5 4
4 3 3 3 4 3 4 5 4 3 2 3 3 2 0 1 1 1 2 4 5 5 6 7 5 5 4 3 7 11 12 12 12 12 11 10 9 9 8 7 6 6 5
3 3 3 3 3 3 4 5 5 5 4 3 3 4 4 4 2 1 2 2 4 4 4 5 6 6 6 4 4 9 11 11 12 12 12 11 10 10 9 8 7 6 5
3 2 2 3 3 3 4 5 5 4 5 4 3 2 2 3 3 1 1 1 3 4 4 4 5 5 6 5 6 9 12 11 12 13 12 11 11 10 9 8 7 7 6
3 2 2 2 2 3 4 5 5 5 4 4 4 3 2 1 2 3 2 1 1 1 3 3 3 3 5 5 5 8 12 12 11 12 12 12 11 11 10 9 8 8 7
3 3 2 2 1 2 3 4 5 6 5 5 4 4 4 3 3 3 3 2 2 1 2 2 3 3 3 4 7 10 12 12 11 11 11 11 11 11 10 10 9 8 7
3 3 3 2 1 1 2 3 4 5 6 6 5 4 4 4 3 3 3 3 2 1 1 1 2 2 3 3 4 9 11 12 11 10 9 9 9 9 9 9 8 8 7
3 3 3 3 2 1 1 2 2 3 4 5 6 5 4 4 3 3 4 4 2 1 1 2 1 2 3 3 4 7 6 10 10 9 9 8 8 7 7 7 7 7 6
3 4 4 3 3 2 1 1 1 2 2 4 4 5 4 3 3 3 3 4 5 3 3 2 1 1 2 3 4 4 4 7 9 9 9 8 7 6 5 4 4 4 4
5 5 4 4 4 3 2 0 1 1 2 2 3 4 4 3 3 3 3 3 3 4 3 2 2 2 3 3 5 4 3 7 8 9 8 7 7 6 5 5 4 4 4
6 6 5 5 4 3 2 1 0 1 2 2 2 3 3 3 3 3 3 3 3 3 3 1 1 1 3 4 4 3 3 3 3 7 7 7 7 6 6 6 5 4 4
6 6 6 5 4 4 3 2 2 1 1 2 2 3 3 3 4 3 3 4 3 3 3 3 2 2 2 4 5 4 3 3 3 5 7 7 7 7 6 6 6 5 4
7 6 6 6 5 4 4 3 2 2 2 2 2 2 2 3 3 3 3 3 3 3 3 3 3 2 2 3 4 4 4 3 4 5 7 7 7 7 7 7 7 6 5
7 7 7 6 6 5 5 4 4 3 3 3 3 2 1 2 2 3 3 3 3 3 3 3 3 3 2 3 4 4 4 3 3 4 6 7 8 9 9 8 8 7 6
7 7 7 7 7 5 5 5 4 4 4 4 4 3 2 2 2 3 3 3 4 3 3 3 3 3 3 4 4 3 5 5 4 3 5 5 5 5 5 6 7 8 7
7 7 7 7 7 6 9 10 7 5 5 5 4 3 3 3 3 4 5 5 5 5 4 3 3 4 4 4 4 5 6 5 3 2 4 4 4 4 4 4 7 9 8
6 7 7 7 7 8 12 12 11 6 5 5 4 4 4 4 5 4 6 7 6 6 5 4 5 4 5 5 6 6 5 4 4 4 4 4 3 4 3 5 9 9 9
5 5 7 7 7 9 13 12 11 7 6 6 5 4 4 4 4 5 6 6 6 5 4 4 3 3 4 5 5 5 6 6 6 3 3 4 2 3 3 3 7 8 8
5 5 5 7 7 8 12 12 10 5 6 6 6 5 5 5 8 9 7 7 7 5 7 9 8 8 8 9 8 7 6 7 5 2 2 4 3 3 2 2 4 7 7
3 4 6 6 7 7 11 12 9 4 5 4 5 6 8 8 8 8 6 6 6 4 5 6 7 8 7 7 7 6 6 6 4 3 2 3 3 3 3 1 1 2 3
Wind_Direction
227 223 219 212 209 201 203 211 218 224 231 235 234 230 218 198 184 184 195 192 181 179 177 176 174 172 169 165 159 156 151 148 144 143 140 138 135 132 132 128 126 126 124
225 216 213 212 210 206 211 213 217 221 227 228 230 226 211 187 183 185 188 191 186 182 182 183 181 178 176 174 171 166 164 162 159 155 149 145 143 140 140 140 137 137 139
231 221 213 212 212 205 207 214 223 225 228 225 224 219 196 180 179 183 183 183 185 189 188 188 185 184 183 181 179 176 173 169 165 162 158 156 153 150 149 148 149 151 155
248 232 222 218 209 201 201 202 211 221 225 217 210 201 181 174 176 179 180 183 182 188 195 195 190 190 189 187 185 183 180 176 171 169 167 165 164 162 164 165 165 167 170
262 243 231 226 210 199 200 209 200 202 212 213 209 194 175 171 176 178 182 187 189 187 186 196 194 193 193 192 190 187 185 183 181 180 178 175 173 173 172 174 175 175 176
260 243 232 227 212 202 198 197 195 196 196 195 206 195 187 176 176 178 185 185 190 193 189 190 189 198 197 194 193 191 191 189 189 187 184 181 179 178 176 178 179 178 180
265 246 240 224 214 210 205 195 187 191 198 169 122 47 333 288 186 186 183 177 188 192 188 193 188 186 198 201 197 196 196 195 195 193 191 187 185 185 185 185 187 191 198
275 254 231 224 216 207 205 198 187 176 181 171 149 134 157 321 291 208 181 180 186 182 187 197 193 194 193 188 202 201 199 199 198 196 195 191 189 188 187 188 191 199 207
293 272 241 227 218 205 205 204 197 183 182 184 164 154 161 206 235 277 200 185 181 173 184 188 193 199 199 193 194 207 202 199 200 200 198 196 193 191 192 194 199 200 204
306 295 262 232 220 209 206 212 204 192 177 181 180 183 172 169 162 197 301 190 184 176 178 186 195 200 199 194 199 201 203 201 203 203 201 199 198 197 198 200 202 203 207
316 316 300 258 231 219 216 210 199 193 191 183 176 166 176 191 169 158 187 208 207 197 182 177 182 191 195 192 193 203 202 201 203 205 204 203 203 202 203 205 206 208 208
318 327 320 298 260 230 225 217 202 195 199 192 187 176 172 173 184 169 172 187 198 219 199 187 186 191 192 185 196 199 200 198 201 202 202 203 205 206 208 209 208 210 212
320 319 326 316 296 256 234 218 202 196 194 190 191 196 194 198 175 163 154 162 174 203 192 206 197 185 183 179 191 194 200 197 198 200 200 201 201 204 207 208 209 210 212
318 326 332 325 316 295 260 219 205 202 191 194 199 194 193 198 185 172 160 152 152 182 207 217 194 184 172 176 191 187 195 194 195 196 197 197 194 194 197 203 204 206 206
341 348 345 341 337 329 305 225 210 203 190 193 192 187 188 192 181 172 160 158 155 172 209 211 189 194 177 165 170 174 179 192 192 193 193 190 186 184 185 183 183 180 172
355 351 349 350 353 348 339 303 221 207 184 192 184 179 183 181 174 169 167 164 159 159 183 204 190 176 169 159 155 161 175 187 192 189 185 181 176 171 171 163 155 154 150
3 3 356 356 356 354 349 353 270 180 175 172 164 169 178 175 170 171 164 161 165 156 167 188 166 152 152 148 144 147 149 157 169 170 166 164 159 154 153 150 147 144 142
7 6 5 8 8 4 8 22 27 49 148 153 149 151 166 167 168 171 173 173 173 169 163 173 165 162 158 160 147 144 143 145 133 138 145 145 140 138 135 136 132 130 133
9 9 12 14 11 10 19 31 41 48 76 101 116 128 152 150 167 174 177 176 174 172 159 156 163 153 134 144 133 129 128 122 134 128 126 122 122 123 124 120 117 116 117
12 12 11 12 14 21 28 38 48 55 64 74 80 95 114 143 168 169 169 170 166 162 156 152 149 140 135 138 135 136 126 112 114 114 102 96 98 96 98 100 104 104 104
13 9 13 15 15 25 33 43 56 65 68 69 64 65 70 98 140 154 160 166 157 151 148 150 148 138 137 143 144 136 126 113 91 96 101 88 84 77 76 80 85 92 96
9 17 21 20 23 29 41 51 62 67 65 67 62 50 53 58 85 113 126 132 143 147 149 144 145 151 151 143 133 136 135 131 119 114 101 87 77 78 66 70 81 85 84
15 21 19 23 26 29 45 52 59 64 60 53 47 44 50 55 66 83 92 90 87 101 122 141 149 156 154 155 145 141 140 129 120 134 110 92 73 75 63 68 84 85 82
15 18 21 23 28 31 43 51 57 59 58 50 43 45 57 50 70 89 90 79 70 67 85 99 121 137 143 145 145 139 131 105 93 96 98 106 96 79 64 52 76 83 81
21 22 22 26 29 22 35 49 56 56 56 46 41 43 53 60 73 86 94 92 82 68 70 80 84 93 108 121 127 122 124 127 123 118 84 109 123 106 78 53 56 65 70
25 30 34 26 26 22 31 46 55 60 57 43 36 38 47 60 65 72 91 99 94 82 82 74 69 69 79 92 103 128 141 140 130 135 134 114 137 135 121 85 53 38 48